VALLADOLID / VILLANUBLA current weather conditions

sailwx.info

Wind from 040 at 11 knots

Air temperature 3.0° C
Dewpoint -4.0° C

Last reported at 2015-Mar-05 21:30 UTC.
Time now 2015-Mar-06 00:04 UTC

Location: N 41°43' W 004°51'.
View on Google Maps.

See reports from other nearby stations

  
Tides and Currents Weather Stations Pressure Air Temp Water Temp Dewpoint Dewpoint Depression Visibility Wind Speed Wind Dir Waves Ship Positions
date/time (UTC)wind fromknots sea level pressurealtimeterstation pressurevisibilityair tempwater tempwave heightnotes
2015-Mar-05 21:30 040 11 3.0
2015-Mar-05 21:00 050 8 3.0
2015-Mar-05 20:30 050 10 4.0
2015-Mar-05 20:00 050 8 4.0
2015-Mar-05 19:30 040 8 3.0
2015-Mar-05 19:00 060 8 5.0
2015-Mar-05 18:30 060 11 5.0
2015-Mar-05 18:00 060 12 7.0
2015-Mar-05 17:30 070 13 8.0
2015-Mar-05 17:00 060 15 9.0
2015-Mar-05 16:30 070 13 10.0
2015-Mar-05 16:00 060 13 10.0
2015-Mar-05 15:30 070 14 10.0
2015-Mar-05 15:00 070 15 10.0
2015-Mar-05 14:30 050 15 10.0
2015-Mar-05 14:00 060 15 9.0
2015-Mar-05 13:30 070 14 9.0
2015-Mar-05 13:00 070 16 8.0
2015-Mar-05 12:30 070 17 7.0
2015-Mar-05 12:00 070 16 7.0
2015-Mar-05 11:30 070 14 7.0
2015-Mar-05 11:00 060 14 5.4 6.0
2015-Mar-05 10:30 070 15 5.4 5.0
2015-Mar-05 10:00 070 14 5.4 4.0
2015-Mar-05 09:30 070 14 5.4 4.0
2015-Mar-05 09:00 060 13 5.4 3.0
2015-Mar-05 08:30 050 6 5.4 2.0
2015-Mar-05 08:00 030 6 5.4-0.0
2015-Mar-05 07:30 050 6 5.4-0.0
2015-Mar-05 07:00 5.4-2.0
2015-Mar-05 06:30 020 2 5.4-2.0
2015-Mar-05 06:00 040 7 5.4-3.0
2015-Mar-04 20:30 070 9 2.0
2015-Mar-04 20:00 070 9 2.0
2015-Mar-04 19:30 080 8 3.0
2015-Mar-04 19:00 070 13 4.0
2015-Mar-04 18:30 080 10 4.0
2015-Mar-04 18:00 070 15 5.0
2015-Mar-04 17:30 060 14 7.0
2015-Mar-04 17:00 070 16 7.0
2015-Mar-04 16:30 060 14 5.4 8.0
2015-Mar-04 16:00 070 13 gusting 25 5.4 9.0
2015-Mar-04 15:30 050 13 5.410.0
2015-Mar-04 15:00 050 10 5.410.0
2015-Mar-04 14:30 070 13 5.410.0
2015-Mar-04 14:00 070 12 5.411.0
2015-Mar-04 13:30 040 14 5.410.0
2015-Mar-04 13:00 050 11 5.4 9.0
2015-Mar-04 12:30 040 13 5.410.0
2015-Mar-04 12:00 040 10 5.4 9.0
2015-Mar-04 11:30 050 11 5.4 9.0
2015-Mar-04 11:00 050 13 5.4 9.0
2015-Mar-04 10:30 060 13 5.4 7.0
2015-Mar-04 10:00 050 12 5.4 7.0
2015-Mar-04 09:30 060 13 5.4 6.0
2015-Mar-04 09:00 050 16 5.4 6.0
2015-Mar-04 08:30 050 15 5.4 5.0
2015-Mar-04 08:00 040 10 5.4 4.0
2015-Mar-04 07:30 040 8 5.4 4.0
2015-Mar-04 07:00 050 7 5.4 3.0
2015-Mar-04 06:30 050 8 5.4 5.0
2015-Mar-04 06:00 050 8 5.4 5.0